STARLINK-36771

Last updated on Wed Mar 25 2026 00:02:05 GMT+0000 (Coordinated Universal Time)

1 67928U 26036AA 26083.50002314 -.01861738 00000+0 -52097-1 0 9992 2 67928 42.9991 161.7094 0001732 294.3651 154.5060 15.39240207 6021
UTC large
Height (km)
Speed (km/s)
/
Latitude / Longitude
Inclination (degrees)
Orbital Period (minutes)
Azimuth
Elevation
Range (km)
Doppler Factor

Next 0 passes for location: London (51.5072 / 0.1276)

Sorry there are no passes over London.